Time,TemperatureF,DewpointF,PressureIn,WindDirection,WindDirectionDegrees,WindSpeedMPH,WindSpeedGustMPH,Humidity,HourlyPrecipIn,Conditions,Clouds,dailyrainin,SoftwareType,DateUTC
2017-07-24 00:00:00,69.8,48.7,29.84,WNW,289,2.9,3.1,47,0.00,,,0.00,meteobridge,2017-07-24 07:00:00,
2017-07-24 00:05:00,70.0,48.2,29.84,NW,304,1.8,2.9,46,0.00,,,0.00,meteobridge,2017-07-24 07:05:00,
2017-07-24 00:10:00,70.3,49.1,29.84,WNW,303,2.5,2.5,47,0.00,,,0.00,meteobridge,2017-07-24 07:10:00,
2017-07-24 00:15:00,70.7,48.9,29.84,NW,306,0.0,2.5,46,0.00,,,0.00,meteobridge,2017-07-24 07:15:00,
2017-07-24 00:20:00,70.7,49.5,29.84,West,278,0.0,2.5,47,0.00,,,0.00,meteobridge,2017-07-24 07:20:00,
2017-07-24 00:25:00,70.3,49.1,29.84,NNW,345,0.0,1.3,47,0.00,,,0.00,meteobridge,2017-07-24 07:25:00,
2017-07-24 00:30:00,70.2,49.6,29.84,NW,304,1.3,2.5,48,0.00,,,0.00,meteobridge,2017-07-24 07:30:00,
2017-07-24 00:35:00,69.8,49.8,29.84,NW,304,0.0,2.5,49,0.00,,,0.00,meteobridge,2017-07-24 07:35:00,
2017-07-24 00:40:00,69.4,50.0,29.84,NW,306,2.9,2.9,50,0.00,,,0.00,meteobridge,2017-07-24 07:40:00,
2017-07-24 00:45:00,69.1,49.1,29.84,NW,306,0.0,0.0,49,0.00,,,0.00,meteobridge,2017-07-24 07:45:00,
2017-07-24 00:50:00,68.7,48.7,29.84,NW,306,0.0,1.8,49,0.00,,,0.00,meteobridge,2017-07-24 07:50:00,
2017-07-24 00:56:00,68.7,49.3,29.84,NW,306,0.0,1.8,50,0.00,,,0.00,meteobridge,2017-07-24 07:56:00,
2017-07-24 01:01:00,68.4,49.5,29.84,NW,306,2.5,2.9,51,0.00,,,0.00,meteobridge,2017-07-24 08:01:00,
2017-07-24 01:06:00,68.2,48.9,29.84,WNW,301,2.5,2.9,50,0.00,,,0.00,meteobridge,2017-07-24 08:06:00,
2017-07-24 01:11:00,68.0,48.7,29.84,WNW,300,0.0,0.0,50,0.00,,,0.00,meteobridge,2017-07-24 08:11:00,
2017-07-24 01:16:00,67.8,49.1,29.84,NW,306,3.1,3.1,51,0.00,,,0.00,meteobridge,2017-07-24 08:16:00,
2017-07-24 01:21:00,67.6,48.4,29.84,WNW,285,2.5,2.9,50,0.00,,,0.00,meteobridge,2017-07-24 08:21:00,
2017-07-24 01:26:00,67.6,48.4,29.84,WNW,285,0.0,0.0,50,0.00,,,0.00,meteobridge,2017-07-24 08:26:00,
2017-07-24 01:31:00,67.6,48.4,29.84,WNW,285,0.0,0.0,50,0.00,,,0.00,meteobridge,2017-07-24 08:31:00,
2017-07-24 01:36:00,67.5,48.7,29.84,WNW,285,0.0,0.0,51,0.00,,,0.00,meteobridge,2017-07-24 08:36:00,
2017-07-24 01:41:00,67.3,49.1,29.84,WNW,285,1.8,2.0,52,0.00,,,0.00,meteobridge,2017-07-24 08:41:00,
2017-07-24 01:46:00,67.3,49.1,29.84,WNW,285,1.8,2.9,52,0.00,,,0.00,meteobridge,2017-07-24 08:46:00,
2017-07-24 01:51:00,66.9,48.7,29.84,WNW,285,1.3,1.3,52,0.00,,,0.00,meteobridge,2017-07-24 08:51:00,
2017-07-24 01:56:00,67.3,48.6,29.84,West,279,3.1,3.6,51,0.00,,,0.00,meteobridge,2017-07-24 08:56:00,
2017-07-24 02:01:00,67.8,48.6,29.84,WNW,289,1.3,1.3,50,0.00,,,0.00,meteobridge,2017-07-24 09:01:00,
2017-07-24 02:06:00,68.2,49.3,29.84,WNW,289,0.0,0.0,51,0.00,,,0.00,meteobridge,2017-07-24 09:06:00,
2017-07-24 02:11:00,68.0,49.3,29.84,WNW,289,0.0,0.0,51,0.00,,,0.00,meteobridge,2017-07-24 09:11:00,
2017-07-24 02:16:00,67.8,50.0,29.84,WNW,289,1.3,2.5,53,0.00,,,0.00,meteobridge,2017-07-24 09:16:00,
2017-07-24 02:21:00,67.6,49.5,29.84,WNW,298,2.5,3.6,52,0.00,,,0.00,meteobridge,2017-07-24 09:21:00,
2017-07-24 02:26:00,67.6,49.5,29.84,WNW,282,1.8,1.8,52,0.00,,,0.00,meteobridge,2017-07-24 09:26:00,
2017-07-24 02:31:00,67.6,49.5,29.84,WNW,289,1.8,2.0,52,0.00,,,0.00,meteobridge,2017-07-24 09:31:00,
2017-07-24 02:36:00,67.5,49.3,29.84,NW,306,3.1,3.1,52,0.00,,,0.00,meteobridge,2017-07-24 09:36:00,
2017-07-24 02:41:00,67.6,48.9,29.84,WNW,286,2.5,3.1,51,0.00,,,0.00,meteobridge,2017-07-24 09:41:00,
2017-07-24 02:46:00,67.8,49.1,29.83,West,272,2.0,2.9,51,0.00,,,0.00,meteobridge,2017-07-24 09:46:00,
2017-07-24 02:51:00,68.2,49.3,29.83,WNW,296,1.3,2.9,51,0.00,,,0.00,meteobridge,2017-07-24 09:51:00,
2017-07-24 02:56:00,68.2,49.3,29.83,WNW,298,2.0,2.9,51,0.00,,,0.00,meteobridge,2017-07-24 09:56:00,
2017-07-24 03:01:00,68.2,49.3,29.83,WNW,298,0.0,0.0,51,0.00,,,0.00,meteobridge,2017-07-24 10:01:00,
2017-07-24 03:06:00,67.8,49.1,29.83,WNW,298,0.0,0.0,51,0.00,,,0.00,meteobridge,2017-07-24 10:06:00,
2017-07-24 03:11:00,67.8,49.1,29.83,WNW,295,0.0,1.3,51,0.00,,,0.00,meteobridge,2017-07-24 10:11:00,
2017-07-24 03:17:00,67.6,48.9,29.83,WNW,295,0.0,0.0,51,0.00,,,0.00,meteobridge,2017-07-24 10:17:00,
2017-07-24 03:22:00,67.5,48.7,29.83,WNW,295,0.0,0.0,51,0.00,,,0.00,meteobridge,2017-07-24 10:22:00,
2017-07-24 03:27:00,67.6,48.9,29.83,WNW,295,1.8,2.9,51,0.00,,,0.00,meteobridge,2017-07-24 10:27:00,
2017-07-24 03:32:00,67.6,48.9,29.83,WNW,295,0.0,1.3,51,0.00,,,0.00,meteobridge,2017-07-24 10:32:00,
2017-07-24 03:37:00,67.6,49.8,29.83,WNW,295,0.0,0.0,53,0.00,,,0.00,meteobridge,2017-07-24 10:37:00,
2017-07-24 03:42:00,67.6,48.9,29.83,WNW,295,0.0,0.0,51,0.00,,,0.00,meteobridge,2017-07-24 10:42:00,
2017-07-24 03:47:00,67.6,49.5,29.83,WNW,295,0.0,2.0,52,0.00,,,0.00,meteobridge,2017-07-24 10:47:00,
2017-07-24 03:52:00,67.5,49.3,29.83,WNW,295,0.0,2.0,52,0.00,,,0.00,meteobridge,2017-07-24 10:52:00,
2017-07-24 03:57:00,67.5,49.8,29.83,WNW,295,0.0,0.0,53,0.00,,,0.00,meteobridge,2017-07-24 10:57:00,
2017-07-24 04:02:00,67.3,50.0,29.83,WNW,295,0.0,0.0,54,0.00,,,0.00,meteobridge,2017-07-24 11:02:00,
2017-07-24 04:07:00,66.9,49.8,29.83,WNW,295,0.0,0.0,54,0.00,,,0.00,meteobridge,2017-07-24 11:07:00,
2017-07-24 04:12:00,66.7,49.6,29.83,WNW,295,0.0,1.8,54,0.00,,,0.00,meteobridge,2017-07-24 11:12:00,
2017-07-24 04:17:00,66.7,50.0,29.83,WNW,295,0.0,0.0,55,0.00,,,0.00,meteobridge,2017-07-24 11:17:00,
2017-07-24 04:22:00,66.6,49.5,29.83,WNW,295,1.3,1.8,54,0.00,,,0.00,meteobridge,2017-07-24 11:22:00,
2017-07-24 04:27:00,66.6,49.8,29.83,WNW,288,0.0,2.5,55,0.00,,,0.00,meteobridge,2017-07-24 11:27:00,
2017-07-24 04:32:00,66.6,49.5,29.83,NW,312,1.8,1.8,54,0.00,,,0.00,meteobridge,2017-07-24 11:32:00,
2017-07-24 04:37:00,66.7,49.6,29.83,NW,312,0.0,0.0,54,0.00,,,0.00,meteobridge,2017-07-24 11:37:00,
2017-07-24 04:42:00,66.6,49.8,29.83,NW,312,0.0,2.5,55,0.00,,,0.00,meteobridge,2017-07-24 11:42:00,
2017-07-24 04:47:00,66.6,49.5,29.83,NW,312,1.3,1.3,54,0.00,,,0.00,meteobridge,2017-07-24 11:47:00,
2017-07-24 04:52:00,66.4,49.6,29.83,NW,312,0.0,1.8,55,0.00,,,0.00,meteobridge,2017-07-24 11:52:00,
2017-07-24 04:57:00,66.2,49.6,29.83,NW,312,1.8,2.0,55,0.00,,,0.00,meteobridge,2017-07-24 11:57:00,
2017-07-24 05:02:00,66.0,49.5,29.83,NW,312,0.0,0.0,55,0.00,,,0.00,meteobridge,2017-07-24 12:02:00,
2017-07-24 05:07:00,66.0,49.8,29.83,NW,312,0.0,2.0,56,0.00,,,0.00,meteobridge,2017-07-24 12:07:00,
2017-07-24 05:12:00,66.0,49.5,29.83,NW,312,0.0,1.3,55,0.00,,,0.00,meteobridge,2017-07-24 12:12:00,
2017-07-24 05:18:00,66.0,49.5,29.83,NW,312,0.0,1.8,55,0.00,,,0.00,meteobridge,2017-07-24 12:18:00,
2017-07-24 05:23:00,66.0,49.5,29.83,NW,312,0.0,0.0,55,0.00,,,0.00,meteobridge,2017-07-24 12:23:00,
2017-07-24 05:28:00,66.0,49.5,29.83,NW,311,0.0,0.0,55,0.00,,,0.00,meteobridge,2017-07-24 12:28:00,
2017-07-24 05:33:00,66.0,49.8,29.83,NW,312,2.0,2.0,56,0.00,,,0.00,meteobridge,2017-07-24 12:33:00,
2017-07-24 05:38:00,66.0,49.5,29.83,WNW,290,2.0,2.9,55,0.00,,,0.00,meteobridge,2017-07-24 12:38:00,
2017-07-24 05:43:00,66.0,49.5,29.84,WSW,253,0.0,1.8,55,0.00,,,0.00,meteobridge,2017-07-24 12:43:00,
2017-07-24 05:48:00,66.0,49.5,29.84,WNW,287,2.0,2.9,55,0.00,,,0.00,meteobridge,2017-07-24 12:48:00,
2017-07-24 05:53:00,66.4,49.6,29.84,NW,308,0.0,2.5,55,0.00,,,0.00,meteobridge,2017-07-24 12:53:00,
2017-07-24 05:58:00,66.6,49.8,29.84,NW,307,0.0,1.8,55,0.00,,,0.00,meteobridge,2017-07-24 12:58:00,
2017-07-24 06:04:00,66.6,49.8,29.84,NW,307,1.3,1.3,55,0.00,,,0.00,meteobridge,2017-07-24 13:04:00,
2017-07-24 06:09:00,66.7,49.6,29.84,NW,307,0.0,0.0,54,0.00,,,0.00,meteobridge,2017-07-24 13:09:00,
2017-07-24 06:14:00,66.7,50.5,29.84,NW,307,0.0,0.0,56,0.00,,,0.00,meteobridge,2017-07-24 13:14:00,
2017-07-24 06:19:00,66.7,51.1,29.84,NW,307,2.0,2.5,57,0.00,,,0.00,meteobridge,2017-07-24 13:19:00,
2017-07-24 06:24:00,66.6,50.9,29.84,NW,307,0.0,0.0,57,0.00,,,0.00,meteobridge,2017-07-24 13:24:00,
2017-07-24 06:29:00,66.6,51.3,29.85,NW,307,2.0,2.9,58,0.00,,,0.00,meteobridge,2017-07-24 13:29:00,
2017-07-24 06:34:00,66.4,51.1,29.85,WNW,289,2.0,2.0,58,0.00,,,0.00,meteobridge,2017-07-24 13:34:00,
2017-07-24 06:39:00,66.4,51.1,29.85,WNW,298,2.0,2.9,58,0.00,,,0.00,meteobridge,2017-07-24 13:39:00,
2017-07-24 06:44:00,66.4,51.1,29.85,WNW,303,1.8,2.0,58,0.00,,,0.00,meteobridge,2017-07-24 13:44:00,
2017-07-24 06:49:00,66.4,51.1,29.85,WNW,303,0.0,2.5,58,0.00,,,0.00,meteobridge,2017-07-24 13:49:00,
2017-07-24 06:54:00,66.4,51.1,29.85,NNW,337,0.0,0.0,58,0.00,,,0.00,meteobridge,2017-07-24 13:54:00,
2017-07-24 06:59:00,66.4,51.1,29.85,NNW,335,1.8,2.5,58,0.00,,,0.00,meteobridge,2017-07-24 13:59:00,
2017-07-24 07:04:00,66.6,52.2,29.85,WNW,302,0.0,0.0,60,0.00,,,0.00,meteobridge,2017-07-24 14:04:00,
2017-07-24 07:09:00,66.6,51.3,29.85,WNW,302,0.0,0.0,58,0.00,,,0.00,meteobridge,2017-07-24 14:09:00,
2017-07-24 07:14:00,66.7,52.9,29.85,WNW,302,0.0,2.0,61,0.00,,,0.00,meteobridge,2017-07-24 14:14:00,
2017-07-24 07:20:00,66.7,52.9,29.85,WNW,302,0.0,0.0,61,0.00,,,0.00,meteobridge,2017-07-24 14:20:00,
2017-07-24 07:25:00,66.9,52.5,29.85,SSW,192,0.0,2.5,60,0.00,,,0.00,meteobridge,2017-07-24 14:25:00,
2017-07-24 07:30:00,67.1,52.7,29.86,WNW,282,0.0,0.0,60,0.00,,,0.00,meteobridge,2017-07-24 14:30:00,
2017-07-24 07:35:00,67.3,53.8,29.86,WNW,282,0.0,0.0,62,0.00,,,0.00,meteobridge,2017-07-24 14:35:00,
2017-07-24 07:40:00,67.5,54.5,29.86,WNW,282,0.0,0.0,63,0.00,,,0.00,meteobridge,2017-07-24 14:40:00,
2017-07-24 07:45:00,67.6,53.2,29.86,SE,141,0.0,2.5,60,0.00,,,0.00,meteobridge,2017-07-24 14:45:00,
2017-07-24 07:50:00,68.4,53.4,29.86,SE,146,0.0,0.0,59,0.00,,,0.00,meteobridge,2017-07-24 14:50:00,
2017-07-24 07:55:00,69.1,52.7,29.86,SE,130,0.0,2.5,56,0.00,,,0.00,meteobridge,2017-07-24 14:55:00,
2017-07-24 08:00:00,69.4,53.6,29.85,SE,130,0.0,0.0,57,0.00,,,0.00,meteobridge,2017-07-24 15:00:00,
2017-07-24 08:05:00,70.0,55.0,29.85,SE,130,0.0,0.0,59,0.00,,,0.00,meteobridge,2017-07-24 15:05:00,
2017-07-24 08:10:00,70.5,53.6,29.85,ESE,105,1.8,1.8,55,0.00,,,0.00,meteobridge,2017-07-24 15:10:00,
2017-07-24 08:15:00,71.4,52.3,29.85,North,349,0.0,1.8,51,0.00,,,0.00,meteobridge,2017-07-24 15:15:00,
2017-07-24 08:20:00,72.5,53.4,29.85,North,350,0.0,1.3,51,0.00,,,0.00,meteobridge,2017-07-24 15:20:00,
2017-07-24 08:25:00,73.8,54.5,29.85,ESE,115,1.8,2.5,51,0.00,,,0.00,meteobridge,2017-07-24 15:25:00,
2017-07-24 08:30:00,74.7,54.9,29.85,SSE,148,2.5,2.5,50,0.00,,,0.00,meteobridge,2017-07-24 15:30:00,
2017-07-24 08:35:00,75.6,55.0,29.85,South,170,1.3,2.0,49,0.00,,,0.00,meteobridge,2017-07-24 15:35:00,
2017-07-24 08:40:00,76.5,55.9,29.85,South,170,2.9,3.1,49,0.00,,,0.00,meteobridge,2017-07-24 15:40:00,
2017-07-24 08:45:00,77.4,56.1,29.86,ESE,114,1.3,2.0,48,0.00,,,0.00,meteobridge,2017-07-24 15:45:00,
2017-07-24 08:50:00,78.3,56.3,29.86,SSE,147,0.0,2.5,47,0.00,,,0.00,meteobridge,2017-07-24 15:50:00,
2017-07-24 08:55:00,78.4,55.4,29.86,SE,144,1.3,2.9,45,0.00,,,0.00,meteobridge,2017-07-24 15:55:00,
2017-07-24 09:00:00,78.6,55.6,29.85,SSE,157,0.0,4.0,45,0.00,,,0.00,meteobridge,2017-07-24 16:00:00,
2017-07-24 09:05:00,79.2,55.9,29.85,NNE,19,0.0,2.5,45,0.00,,,0.00,meteobridge,2017-07-24 16:05:00,
2017-07-24 09:10:00,79.7,57.0,29.85,ESE,121,1.3,3.1,46,0.00,,,0.00,meteobridge,2017-07-24 16:10:00,
2017-07-24 09:15:00,80.1,56.1,29.85,SE,145,1.8,2.5,44,0.00,,,0.00,meteobridge,2017-07-24 16:15:00,
2017-07-24 09:20:00,80.2,56.3,29.85,South,171,0.0,3.6,44,0.00,,,0.00,meteobridge,2017-07-24 16:20:00,
2017-07-24 09:25:00,80.8,57.4,29.85,SE,138,0.0,2.5,45,0.00,,,0.00,meteobridge,2017-07-24 16:25:00,
2017-07-24 09:30:00,81.1,56.5,29.85,South,181,2.0,2.0,43,0.00,,,0.00,meteobridge,2017-07-24 16:30:00,
2017-07-24 09:35:00,81.3,55.4,29.85,SSW,201,1.3,4.3,41,0.00,,,0.00,meteobridge,2017-07-24 16:35:00,
2017-07-24 09:40:00,81.9,56.5,29.85,ESE,117,2.0,3.1,42,0.00,,,0.00,meteobridge,2017-07-24 16:40:00,
2017-07-24 09:45:00,82.6,56.5,29.84,East,85,2.0,3.1,41,0.00,,,0.00,meteobridge,2017-07-24 16:45:00,
2017-07-24 09:50:00,83.1,56.3,29.84,East,84,0.0,3.1,40,0.00,,,0.00,meteobridge,2017-07-24 16:50:00,
2017-07-24 09:55:00,83.7,57.4,29.84,East,82,2.9,3.1,41,0.00,,,0.00,meteobridge,2017-07-24 16:55:00,
2017-07-24 10:00:00,84.0,57.0,29.84,East,95,1.8,3.6,40,0.00,,,0.00,meteobridge,2017-07-24 17:00:00,
2017-07-24 10:05:00,84.4,57.4,29.84,NE,49,0.0,4.0,40,0.00,,,0.00,meteobridge,2017-07-24 17:05:00,
2017-07-24 10:10:00,84.6,57.6,29.84,ESE,109,4.3,5.4,40,0.00,,,0.00,meteobridge,2017-07-24 17:10:00,
2017-07-24 10:15:00,84.9,57.9,29.84,NE,39,1.3,3.1,40,0.00,,,0.00,meteobridge,2017-07-24 17:15:00,
2017-07-24 10:20:00,85.3,57.6,29.84,East,88,2.5,3.1,39,0.00,,,0.00,meteobridge,2017-07-24 17:20:00,
2017-07-24 10:25:00,85.6,57.2,29.84,South,169,3.6,3.6,38,0.00,,,0.00,meteobridge,2017-07-24 17:25:00,
2017-07-24 10:30:00,85.8,57.2,29.83,NNE,28,2.0,3.6,38,0.00,,,0.00,meteobridge,2017-07-24 17:30:00,
2017-07-24 10:35:00,86.4,57.0,29.83,East,80,2.0,2.9,37,0.00,,,0.00,meteobridge,2017-07-24 17:35:00,
2017-07-24 10:40:00,86.7,57.4,29.83,ENE,72,2.0,2.9,37,0.00,,,0.00,meteobridge,2017-07-24 17:40:00,
2017-07-24 10:45:00,87.4,57.9,29.83,SSE,157,2.0,2.9,37,0.00,,,0.00,meteobridge,2017-07-24 17:45:00,
2017-07-24 10:51:00,87.8,59.0,29.83,ENE,78,1.3,4.0,38,0.00,,,0.00,meteobridge,2017-07-24 17:51:00,
2017-07-24 10:56:00,88.0,59.2,29.83,WSW,245,1.8,3.6,38,0.00,,,0.00,meteobridge,2017-07-24 17:56:00,
2017-07-24 11:01:00,88.3,58.8,29.83,NNW,343,2.0,4.0,37,0.00,,,0.00,meteobridge,2017-07-24 18:01:00,
2017-07-24 11:07:00,88.9,58.5,29.83,ENE,62,2.9,4.7,36,0.00,,,0.00,meteobridge,2017-07-24 18:07:00,
2017-07-24 11:12:00,89.1,59.4,29.83,SE,145,3.1,5.1,37,0.00,,,0.00,meteobridge,2017-07-24 18:12:00,
2017-07-24 11:17:00,89.2,58.8,29.83,East,89,3.1,4.0,36,0.00,,,0.00,meteobridge,2017-07-24 18:17:00,
2017-07-24 11:22:00,89.2,58.8,29.83,SSE,155,5.4,6.3,36,0.00,,,0.00,meteobridge,2017-07-24 18:22:00,
2017-07-24 11:27:00,88.9,57.7,29.83,North,6,4.3,6.3,35,0.00,,,0.00,meteobridge,2017-07-24 18:27:00,
2017-07-24 11:32:00,88.9,58.5,29.82,South,176,4.7,5.1,36,0.00,,,0.00,meteobridge,2017-07-24 18:32:00,
2017-07-24 11:37:00,89.2,57.9,29.82,NNE,14,6.3,6.3,35,0.00,,,0.00,meteobridge,2017-07-24 18:37:00,
2017-07-24 11:42:00,89.2,57.9,29.82,South,173,2.9,5.1,35,0.00,,,0.00,meteobridge,2017-07-24 18:42:00,
2017-07-24 11:48:00,89.2,58.8,29.82,ESE,109,4.0,6.3,36,0.00,,,0.00,meteobridge,2017-07-24 18:48:00,
2017-07-24 11:53:00,89.2,58.8,29.82,NNE,20,2.5,6.9,36,0.00,,,0.00,meteobridge,2017-07-24 18:53:00,
2017-07-24 11:58:00,89.2,58.8,29.81,ESE,111,3.6,4.0,36,0.00,,,0.00,meteobridge,2017-07-24 18:58:00,
2017-07-24 12:03:00,89.6,58.3,29.81,East,95,3.6,4.7,35,0.00,,,0.00,meteobridge,2017-07-24 19:03:00,
2017-07-24 12:08:00,89.8,58.5,29.81,NE,51,4.3,6.5,35,0.00,,,0.00,meteobridge,2017-07-24 19:08:00,
2017-07-24 12:13:00,89.8,59.2,29.81,ESE,119,2.5,6.5,36,0.00,,,0.00,meteobridge,2017-07-24 19:13:00,
2017-07-24 12:18:00,90.1,58.8,29.81,SSE,149,6.9,6.9,35,0.00,,,0.00,meteobridge,2017-07-24 19:18:00,
2017-07-24 12:23:00,90.3,59.7,29.81,SW,228,4.0,5.1,36,0.00,,,0.00,meteobridge,2017-07-24 19:23:00,
2017-07-24 12:28:00,90.9,58.6,29.80,NE,56,0.0,6.9,34,0.00,,,0.00,meteobridge,2017-07-24 19:28:00,
2017-07-24 12:33:00,91.0,58.8,29.80,NNW,332,4.0,9.2,34,0.00,,,0.00,meteobridge,2017-07-24 19:33:00,
2017-07-24 12:38:00,91.2,59.7,29.80,ESE,123,2.0,4.3,35,0.00,,,0.00,meteobridge,2017-07-24 19:38:00,
2017-07-24 12:43:00,91.8,59.4,29.80,ESE,102,3.1,5.1,34,0.00,,,0.00,meteobridge,2017-07-24 19:43:00,
2017-07-24 12:48:00,91.9,60.4,29.80,SE,143,1.8,5.8,35,0.00,,,0.00,meteobridge,2017-07-24 19:48:00,
2017-07-24 12:53:00,91.8,58.6,29.80,NW,307,3.6,5.4,33,0.00,,,0.00,meteobridge,2017-07-24 19:53:00,
2017-07-24 12:58:00,91.0,59.5,29.80,East,98,2.0,2.5,35,0.00,,,0.00,meteobridge,2017-07-24 19:58:00,
2017-07-24 13:03:00,91.2,58.1,29.80,NNE,26,2.5,6.3,33,0.00,,,0.00,meteobridge,2017-07-24 20:03:00,
2017-07-24 13:08:00,90.7,59.2,29.80,NE,39,2.5,5.4,35,0.00,,,0.00,meteobridge,2017-07-24 20:08:00,
2017-07-24 13:13:00,89.4,58.1,29.79,NW,324,5.8,6.9,35,0.00,,,0.00,meteobridge,2017-07-24 20:13:00,
2017-07-24 13:18:00,88.9,58.5,29.79,South,171,2.9,5.1,36,0.00,,,0.00,meteobridge,2017-07-24 20:18:00,
2017-07-24 13:23:00,89.2,57.9,29.79,NNW,338,1.8,8.1,35,0.00,,,0.00,meteobridge,2017-07-24 20:23:00,
2017-07-24 13:28:00,89.4,59.0,29.79,NNW,334,4.0,6.3,36,0.00,,,0.00,meteobridge,2017-07-24 20:28:00,
2017-07-24 13:33:00,89.2,58.8,29.79,ESE,104,2.0,4.3,36,0.00,,,0.00,meteobridge,2017-07-24 20:33:00,
2017-07-24 13:38:00,88.9,58.5,29.79,West,269,3.1,5.8,36,0.00,,,0.00,meteobridge,2017-07-24 20:38:00,
2017-07-24 13:43:00,88.3,57.9,29.78,NNW,345,0.0,4.0,36,0.00,,,0.00,meteobridge,2017-07-24 20:43:00,
2017-07-24 13:48:00,88.3,57.9,29.78,West,275,6.3,7.4,36,0.00,,,0.00,meteobridge,2017-07-24 20:48:00,
2017-07-24 13:53:00,87.8,57.6,29.78,NW,318,5.1,7.4,36,0.00,,,0.00,meteobridge,2017-07-24 20:53:00,
2017-07-24 13:58:00,87.3,57.0,29.78,WSW,246,2.5,4.3,36,0.00,,,0.00,meteobridge,2017-07-24 20:58:00,
2017-07-24 14:03:00,87.1,57.6,29.78,NW,321,5.1,6.9,37,0.00,,,0.00,meteobridge,2017-07-24 21:03:00,
2017-07-24 14:08:00,87.1,57.6,29.78,SW,230,3.6,5.1,37,0.00,,,0.00,meteobridge,2017-07-24 21:08:00,
2017-07-24 14:13:00,87.3,57.7,29.78,NW,312,5.1,6.9,37,0.00,,,0.00,meteobridge,2017-07-24 21:13:00,
2017-07-24 14:18:00,87.3,57.0,29.78,NW,321,0.0,4.7,36,0.00,,,0.00,meteobridge,2017-07-24 21:18:00,
2017-07-24 14:24:00,87.3,57.0,29.78,West,279,2.0,2.0,36,0.00,,,0.00,meteobridge,2017-07-24 21:24:00,
2017-07-24 14:30:00,87.6,57.4,29.77,WSW,242,1.3,2.0,36,0.00,,,0.00,meteobridge,2017-07-24 21:30:00,
2017-07-24 14:35:00,88.0,57.7,29.77,SW,227,0.0,2.0,36,0.00,,,0.00,meteobridge,2017-07-24 21:35:00,
2017-07-24 14:40:00,88.3,58.8,29.77,NNE,30,0.0,1.8,37,0.00,,,0.00,meteobridge,2017-07-24 21:40:00,
2017-07-24 14:45:00,88.9,57.7,29.77,South,169,4.0,4.0,35,0.00,,,0.00,meteobridge,2017-07-24 21:45:00,
2017-07-24 14:51:00,89.6,59.2,29.77,ESE,117,2.5,4.7,36,0.00,,,0.00,meteobridge,2017-07-24 21:51:00,
2017-07-24 14:56:00,90.3,58.1,29.77,NNE,24,4.0,4.3,34,0.00,,,0.00,meteobridge,2017-07-24 21:56:00,
2017-07-24 15:01:00,90.3,58.1,29.76,ESE,105,0.0,3.1,34,0.00,,,0.00,meteobridge,2017-07-24 22:01:00,
2017-07-24 15:06:00,90.5,59.2,29.76,SSW,201,2.0,2.5,35,0.00,,,0.00,meteobridge,2017-07-24 22:06:00,
2017-07-24 15:11:00,90.3,58.1,29.76,NE,45,2.9,3.1,34,0.00,,,0.00,meteobridge,2017-07-24 22:11:00,
2017-07-24 15:16:00,90.1,59.5,29.77,West,277,0.0,4.3,36,0.00,,,0.00,meteobridge,2017-07-24 22:16:00,
2017-07-24 15:21:00,90.1,57.9,29.77,SSW,201,3.6,4.3,34,0.00,,,0.00,meteobridge,2017-07-24 22:21:00,
2017-07-24 15:26:00,90.0,57.7,29.77,West,270,2.9,4.0,34,0.00,,,0.00,meteobridge,2017-07-24 22:26:00,
2017-07-24 15:29:00,90.0,59.4,29.76,SSW,198,4.7,4.7,36,0.00,,,0.00,meteobridge,2017-07-24 22:29:00,
2017-07-24 15:34:00,89.4,59.7,29.76,WNW,288,4.3,6.5,37,0.00,,,0.00,meteobridge,2017-07-24 22:34:00,
2017-07-24 15:39:00,88.9,59.2,29.76,SSW,202,3.1,5.1,37,0.00,,,0.00,meteobridge,2017-07-24 22:39:00,
2017-07-24 15:44:00,88.2,59.4,29.76,ENE,59,4.0,6.5,38,0.00,,,0.00,meteobridge,2017-07-24 22:44:00,
2017-07-24 15:49:00,87.4,58.6,29.76,South,169,4.3,6.3,38,0.00,,,0.00,meteobridge,2017-07-24 22:49:00,
2017-07-24 15:54:00,86.9,59.0,29.76,SSW,193,4.0,7.4,39,0.00,,,0.00,meteobridge,2017-07-24 22:54:00,
2017-07-24 15:59:00,86.7,57.4,29.77,ESE,112,3.1,7.4,37,0.00,,,0.00,meteobridge,2017-07-24 22:59:00,
2017-07-24 16:04:00,86.4,57.7,29.77,SE,134,3.1,10.7,38,0.00,,,0.00,meteobridge,2017-07-24 23:04:00,
2017-07-24 16:09:00,85.8,57.2,29.77,ENE,62,2.9,8.1,38,0.00,,,0.00,meteobridge,2017-07-24 23:09:00,
2017-07-24 16:14:00,85.5,57.0,29.76,West,276,2.0,3.1,38,0.00,,,0.00,meteobridge,2017-07-24 23:14:00,
2017-07-24 16:19:00,85.6,57.9,29.76,WNW,299,3.1,6.5,39,0.00,,,0.00,meteobridge,2017-07-24 23:19:00,
2017-07-24 16:24:00,86.2,59.0,29.76,WNW,299,2.5,3.1,40,0.00,,,0.00,meteobridge,2017-07-24 23:24:00,
2017-07-24 16:29:00,86.4,58.5,29.77,ENE,69,1.8,5.4,39,0.00,,,0.00,meteobridge,2017-07-24 23:29:00,
2017-07-24 16:34:00,86.2,58.3,29.77,WSW,258,3.1,6.5,39,0.00,,,0.00,meteobridge,2017-07-24 23:34:00,
2017-07-24 16:39:00,85.6,58.5,29.77,West,265,4.0,5.1,40,0.00,,,0.00,meteobridge,2017-07-24 23:39:00,
2017-07-24 16:45:00,85.8,59.4,29.77,East,86,2.5,6.3,41,0.00,,,0.00,meteobridge,2017-07-24 23:45:00,
2017-07-24 16:50:00,86.9,59.7,29.77,SSE,166,5.1,6.9,40,0.00,,,0.00,meteobridge,2017-07-24 23:50:00,
2017-07-24 16:55:00,87.3,59.4,29.77,South,188,2.0,6.5,39,0.00,,,0.00,meteobridge,2017-07-24 23:55:00,
2017-07-24 17:00:00,87.3,58.6,29.77,NE,50,2.0,4.7,38,0.00,,,0.00,meteobridge,2017-07-25 00:00:00,
2017-07-24 17:05:00,87.1,59.2,29.77,SE,143,2.9,3.1,39,0.00,,,0.00,meteobridge,2017-07-25 00:05:00,
2017-07-24 17:10:00,87.3,59.4,29.77,South,170,3.1,5.8,39,0.00,,,0.00,meteobridge,2017-07-25 00:10:00,
2017-07-24 17:15:00,87.6,58.8,29.77,SSW,202,5.1,6.3,38,0.00,,,0.00,meteobridge,2017-07-25 00:15:00,
2017-07-24 17:20:00,87.4,59.4,29.77,ESE,104,3.6,7.6,39,0.00,,,0.00,meteobridge,2017-07-25 00:20:00,
2017-07-24 17:25:00,86.9,58.3,29.77,SE,137,4.0,6.3,38,0.00,,,0.00,meteobridge,2017-07-25 00:25:00,
2017-07-24 17:30:00,86.4,58.5,29.77,SE,139,1.8,4.7,39,0.00,,,0.00,meteobridge,2017-07-25 00:30:00,
2017-07-24 17:35:00,86.0,58.1,29.77,SW,217,2.5,5.8,39,0.00,,,0.00,meteobridge,2017-07-25 00:35:00,
2017-07-24 17:40:00,85.8,57.9,29.77,South,183,1.3,2.9,39,0.00,,,0.00,meteobridge,2017-07-25 00:40:00,
2017-07-24 17:45:00,85.6,57.9,29.78,ESE,103,3.6,3.6,39,0.00,,,0.00,meteobridge,2017-07-25 00:45:00,
2017-07-24 17:50:00,85.5,58.5,29.78,NW,313,0.0,1.8,40,0.00,,,0.00,meteobridge,2017-07-25 00:50:00,
2017-07-24 17:55:00,85.3,59.0,29.78,NE,41,1.3,5.4,41,0.00,,,0.00,meteobridge,2017-07-25 00:55:00,
2017-07-24 18:00:00,84.9,58.6,29.78,ENE,75,2.5,5.1,41,0.00,,,0.00,meteobridge,2017-07-25 01:00:00,
2017-07-24 18:05:00,84.6,59.5,29.78,South,190,0.0,3.1,43,0.00,,,0.00,meteobridge,2017-07-25 01:05:00,
2017-07-24 18:10:00,84.4,59.4,29.78,South,190,0.0,0.0,43,0.00,,,0.00,meteobridge,2017-07-25 01:10:00,
2017-07-24 18:15:00,84.0,59.7,29.78,South,190,0.0,0.0,44,0.00,,,0.00,meteobridge,2017-07-25 01:15:00,
2017-07-24 18:20:00,84.4,58.8,29.78,South,173,1.3,2.9,42,0.00,,,0.00,meteobridge,2017-07-25 01:20:00,
2017-07-24 18:25:00,84.6,59.0,29.78,ENE,69,0.0,2.0,42,0.00,,,0.00,meteobridge,2017-07-25 01:25:00,
2017-07-24 18:30:00,84.9,59.2,29.78,ENE,57,3.1,4.3,42,0.00,,,0.00,meteobridge,2017-07-25 01:30:00,
2017-07-24 18:35:00,84.7,58.5,29.78,ESE,122,2.0,2.5,41,0.00,,,0.00,meteobridge,2017-07-25 01:35:00,
2017-07-24 18:40:00,84.7,58.5,29.78,SSE,158,2.0,4.3,41,0.00,,,0.00,meteobridge,2017-07-25 01:40:00,
2017-07-24 18:45:00,84.7,57.7,29.79,SSE,157,2.0,2.0,40,0.00,,,0.00,meteobridge,2017-07-25 01:45:00,
2017-07-24 18:50:00,84.7,58.5,29.79,East,90,2.9,2.9,41,0.00,,,0.00,meteobridge,2017-07-25 01:50:00,
2017-07-24 18:55:00,84.7,57.7,29.79,North,11,2.5,6.3,40,0.00,,,0.00,meteobridge,2017-07-25 01:55:00,
2017-07-24 19:00:00,84.4,58.1,29.80,SSE,151,2.5,5.4,41,0.00,,,0.00,meteobridge,2017-07-25 02:00:00,
2017-07-24 19:05:00,83.8,57.6,29.80,North,355,0.0,2.9,41,0.00,,,0.00,meteobridge,2017-07-25 02:05:00,
2017-07-24 19:10:00,83.7,58.1,29.80,South,181,3.6,3.6,42,0.00,,,0.00,meteobridge,2017-07-25 02:10:00,
2017-07-24 19:15:00,83.1,57.6,29.81,WNW,294,2.0,5.1,42,0.00,,,0.00,meteobridge,2017-07-25 02:15:00,
2017-07-24 19:20:00,82.8,58.6,29.81,SW,227,2.5,4.0,44,0.00,,,0.00,meteobridge,2017-07-25 02:20:00,
2017-07-24 19:25:00,82.0,57.9,29.81,South,172,9.6,10.1,44,0.00,,,0.00,meteobridge,2017-07-25 02:25:00,
2017-07-24 19:30:00,81.0,57.6,29.82,South,184,1.3,4.3,45,0.00,,,0.00,meteobridge,2017-07-25 02:30:00,
2017-07-24 19:35:00,80.1,57.4,29.82,WSW,249,2.5,5.8,46,0.00,,,0.00,meteobridge,2017-07-25 02:35:00,
2017-07-24 19:40:00,79.3,57.4,29.82,East,98,2.9,5.1,47,0.00,,,0.00,meteobridge,2017-07-25 02:40:00,
2017-07-24 19:45:00,78.4,57.2,29.83,NW,312,3.1,4.3,48,0.00,,,0.00,meteobridge,2017-07-25 02:45:00,
2017-07-24 19:50:00,78.1,56.8,29.83,ESE,108,2.9,4.7,48,0.00,,,0.00,meteobridge,2017-07-25 02:50:00,
2017-07-24 19:55:00,77.7,57.0,29.83,SSE,155,2.9,4.3,49,0.00,,,0.00,meteobridge,2017-07-25 02:55:00,
2017-07-24 20:00:00,77.2,56.5,29.84,East,94,1.3,5.8,49,0.00,,,0.00,meteobridge,2017-07-25 03:00:00,
2017-07-24 20:05:00,76.8,56.3,29.84,ESE,114,0.0,4.3,49,0.00,,,0.00,meteobridge,2017-07-25 03:05:00,
2017-07-24 20:10:00,76.8,56.8,29.84,SE,137,0.0,2.5,50,0.00,,,0.00,meteobridge,2017-07-25 03:10:00,
2017-07-24 20:15:00,76.5,56.5,29.84,SSE,164,0.0,3.6,50,0.00,,,0.00,meteobridge,2017-07-25 03:15:00,
2017-07-24 20:20:00,76.3,56.3,29.84,SSE,149,2.0,6.5,50,0.00,,,0.00,meteobridge,2017-07-25 03:20:00,
2017-07-24 20:25:00,75.9,55.9,29.84,East,96,2.5,5.4,50,0.00,,,0.00,meteobridge,2017-07-25 03:25:00,
2017-07-24 20:30:00,75.7,56.3,29.85,SE,141,0.0,2.9,51,0.00,,,0.00,meteobridge,2017-07-25 03:30:00,
2017-07-24 20:35:00,75.6,56.1,29.85,SE,144,0.0,1.3,51,0.00,,,0.00,meteobridge,2017-07-25 03:35:00,
2017-07-24 20:40:00,75.4,55.9,29.85,SSE,148,0.0,1.3,51,0.00,,,0.00,meteobridge,2017-07-25 03:40:00,
2017-07-24 20:45:00,75.0,56.1,29.86,SW,235,1.8,1.8,52,0.00,,,0.00,meteobridge,2017-07-25 03:45:00,
2017-07-24 20:50:00,74.7,55.9,29.86,SW,236,0.0,0.0,52,0.00,,,0.00,meteobridge,2017-07-25 03:50:00,
2017-07-24 20:55:00,74.5,55.8,29.86,SW,236,0.0,1.3,52,0.00,,,0.00,meteobridge,2017-07-25 03:55:00,
2017-07-24 21:00:00,74.1,55.4,29.87,South,175,0.0,1.3,52,0.00,,,0.00,meteobridge,2017-07-25 04:00:00,
2017-07-24 21:05:00,73.9,55.8,29.87,South,175,0.0,0.0,53,0.00,,,0.00,meteobridge,2017-07-25 04:05:00,
2017-07-24 21:10:00,73.8,55.6,29.87,South,175,0.0,0.0,53,0.00,,,0.00,meteobridge,2017-07-25 04:10:00,
2017-07-24 21:15:00,73.8,55.6,29.88,East,98,2.5,4.7,53,0.00,,,0.00,meteobridge,2017-07-25 04:15:00,
2017-07-24 21:20:00,73.8,55.0,29.88,ESE,109,2.0,5.8,52,0.00,,,0.00,meteobridge,2017-07-25 04:20:00,
2017-07-24 21:25:00,73.8,55.0,29.88,SE,144,3.6,5.8,52,0.00,,,0.00,meteobridge,2017-07-25 04:25:00,
2017-07-24 21:30:00,73.8,55.0,29.89,SSW,200,4.3,6.3,52,0.00,,,0.00,meteobridge,2017-07-25 04:30:00,
2017-07-24 21:35:00,73.8,55.6,29.89,South,175,2.9,2.9,53,0.00,,,0.00,meteobridge,2017-07-25 04:35:00,
2017-07-24 21:40:00,73.4,55.8,29.89,North,1,3.1,4.7,54,0.00,,,0.00,meteobridge,2017-07-25 04:40:00,
2017-07-24 21:45:00,73.0,55.9,29.89,East,89,5.8,8.5,55,0.00,,,0.00,meteobridge,2017-07-25 04:45:00,
2017-07-24 21:50:00,72.5,55.4,29.89,North,2,1.3,3.1,55,0.00,,,0.00,meteobridge,2017-07-25 04:50:00,
2017-07-24 21:55:00,72.1,55.6,29.89,SSW,208,2.9,4.3,56,0.00,,,0.00,meteobridge,2017-07-25 04:55:00,
2017-07-24 22:00:00,71.8,55.2,29.89,SSE,158,2.0,4.3,56,0.00,,,0.00,meteobridge,2017-07-25 05:00:00,
2017-07-24 22:04:00,71.4,55.4,29.89,SSE,153,0.0,1.8,57,0.00,,,0.00,meteobridge,2017-07-25 05:04:00,
2017-07-24 22:09:00,71.2,55.2,29.89,SSW,204,0.0,2.0,57,0.00,,,0.00,meteobridge,2017-07-25 05:09:00,
2017-07-24 22:14:00,70.9,55.4,29.89,NW,316,0.0,2.9,58,0.00,,,0.00,meteobridge,2017-07-25 05:14:00,
2017-07-24 22:19:00,70.5,55.0,29.89,WNW,282,0.0,2.9,58,0.00,,,0.00,meteobridge,2017-07-25 05:19:00,
2017-07-24 22:24:00,70.2,54.7,29.89,WNW,298,2.5,3.1,58,0.00,,,0.00,meteobridge,2017-07-25 05:24:00,
2017-07-24 22:29:00,70.0,55.0,29.88,WNW,294,1.3,3.1,59,0.00,,,0.00,meteobridge,2017-07-25 05:29:00,
2017-07-24 22:34:00,69.6,54.7,29.88,WNW,295,1.3,1.8,59,0.00,,,0.00,meteobridge,2017-07-25 05:34:00,
2017-07-24 22:39:00,69.6,54.7,29.88,WNW,295,0.0,0.0,59,0.00,,,0.00,meteobridge,2017-07-25 05:39:00,
2017-07-24 22:44:00,69.4,54.5,29.88,WNW,295,0.0,0.0,59,0.00,,,0.00,meteobridge,2017-07-25 05:44:00,
2017-07-24 22:49:00,69.3,54.9,29.88,WNW,295,0.0,0.0,60,0.00,,,0.00,meteobridge,2017-07-25 05:49:00,
2017-07-24 22:54:00,69.1,54.7,29.88,NNE,31,0.0,1.3,60,0.00,,,0.00,meteobridge,2017-07-25 05:54:00,
2017-07-24 22:59:00,69.1,54.7,29.89,NNE,33,0.0,1.3,60,0.00,,,0.00,meteobridge,2017-07-25 05:59:00,
2017-07-24 23:04:00,68.9,54.5,29.89,NNE,33,0.0,0.0,60,0.00,,,0.00,meteobridge,2017-07-25 06:04:00,
2017-07-24 23:09:00,68.7,54.7,29.89,NNE,33,0.0,0.0,61,0.00,,,0.00,meteobridge,2017-07-25 06:09:00,
2017-07-24 23:14:00,68.7,54.7,29.89,NNE,23,2.0,2.5,61,0.00,,,0.00,meteobridge,2017-07-25 06:14:00,
2017-07-24 23:19:00,68.5,54.5,29.89,NNE,17,0.0,1.8,61,0.00,,,0.00,meteobridge,2017-07-25 06:19:00,
2017-07-24 23:24:00,68.4,54.3,29.89,NNE,17,0.0,0.0,61,0.00,,,0.00,meteobridge,2017-07-25 06:24:00,
2017-07-24 23:29:00,68.4,54.9,29.89,NNE,17,0.0,0.0,62,0.00,,,0.00,meteobridge,2017-07-25 06:29:00,
2017-07-24 23:34:00,68.2,54.7,29.89,NNE,17,0.0,0.0,62,0.00,,,0.00,meteobridge,2017-07-25 06:34:00,
2017-07-24 23:39:00,68.0,54.9,29.89,NNW,328,1.8,2.5,63,0.00,,,0.00,meteobridge,2017-07-25 06:39:00,
2017-07-24 23:44:00,67.8,54.3,29.89,NW,311,2.5,2.9,62,0.00,,,0.00,meteobridge,2017-07-25 06:44:00,